• In Romania
  • List of Countries
  • For 7 days
  • Water Temperature
  • Satellite Maps
  • Weather Map
  • Weather Widgets
  • user-avatar
    Login

    Hourly Weather Mendoza

    Today, 23 June, Friday

    Time Temperature Precipitation Wind Pressure Humidity
    00:00 +11°C° 0 mm 3 mps 693 mmHg 59%
    01:00 +10°C° 0 mm 3 mps 693 mmHg 59%
    02:00 +10°C° 0 mm 3 mps 693 mmHg 60%
    03:00 +10°C° 0 mm 3 mps 693 mmHg 60%
    04:00 +10°C° 0 mm 3 mps 693 mmHg 61%
    05:00 +9°C° 0 mm 3 mps 693 mmHg 62%
    06:00 +9°C° 0 mm 3 mps 694 mmHg 63%
    07:00 +9°C° 0 mm 3 mps 694 mmHg 63%
    08:00 +11°C° 0 mm 3 mps 695 mmHg 57%
    09:00 +13°C° 0 mm 3 mps 695 mmHg 51%
    10:00 +14°C° 0 mm 4 mps 696 mmHg 45%
    11:00 +15°C° 0 mm 4 mps 695 mmHg 45%
    12:00 +17°C° 0 mm 4 mps 695 mmHg 44%
    13:00 +18°C° 0 mm 4 mps 695 mmHg 44%
    14:00 +17°C° 0 mm 3 mps 695 mmHg 49%
    15:00 +16°C° 0 mm 3 mps 695 mmHg 55%
    16:00 +14°C° 0 mm 3 mps 695 mmHg 60%
    17:00 +13°C° 0 mm 3 mps 695 mmHg 65%
    18:00 +12°C° 0 mm 3 mps 696 mmHg 71%
    19:00 +11°C° 0 mm 3 mps 696 mmHg 76%
    20:00 +11°C° 0 mm 3 mps 696 mmHg 78%
    21:00 +10°C° 0 mm 3 mps 696 mmHg 81%
    22:00 +10°C° 0 mm 3 mps 696 mmHg 83%
    23:00 +10°C° 0 mm 3 mps 696 mmHg 82%

    Tomorrow, 24 June, Saturday

    Time Temperature Precipitation Wind Pressure Humidity
    00:00 +9°C° 0 mm 3 mps 696 mmHg 82%
    01:00 +9°C° 0 mm 3 mps 696 mmHg 81%
    02:00 +9°C° 0 mm 3 mps 696 mmHg 80%
    03:00 +8°C° 0 mm 3 mps 695 mmHg 79%
    04:00 +8°C° 0 mm 3 mps 695 mmHg 78%
    05:00 +8°C° 0 mm 3 mps 695 mmHg 77%
    06:00 +8°C° 0 mm 2 mps 695 mmHg 77%
    07:00 +7°C° 0 mm 2 mps 695 mmHg 76%
    08:00 +9°C° 0 mm 3 mps 695 mmHg 70%
    09:00 +10°C° 0 mm 3 mps 695 mmHg 64%
    10:00 +12°C° 0 mm 3 mps 695 mmHg 58%
    11:00 +13°C° 0 mm 3 mps 694 mmHg 55%
    12:00 +14°C° 0 mm 3 mps 694 mmHg 52%
    13:00 +16°C° 0 mm 3 mps 693 mmHg 49%
    14:00 +14°C° 0 mm 3 mps 693 mmHg 52%
    15:00 +14°C° 0 mm 3 mps 693 mmHg 54%
    16:00 +13°C° 0 mm 3 mps 693 mmHg 56%
    17:00 +12°C° 0 mm 3 mps 693 mmHg 60%
    18:00 +11°C° 0 mm 3 mps 693 mmHg 63%
    19:00 +10°C° 0 mm 3 mps 693 mmHg 66%
    20:00 +10°C° 0 mm 3 mps 693 mmHg 67%
    21:00 +9°C° 0 mm 3 mps 693 mmHg 67%
    22:00 +9°C° 0 mm 3 mps 693 mmHg 67%
    23:00 +9°C° 0 mm 3 mps 692 mmHg 68%

    Day after tomorrow, 25 June, Sunday

    Time Temperature Precipitation Wind Pressure Humidity
    00:00 +9°C° 0 mm 3 mps 692 mmHg 69%
    01:00 +9°C° 0 mm 3 mps 692 mmHg 70%
    02:00 +9°C° 0 mm 3 mps 692 mmHg 70%
    03:00 +9°C° 0 mm 3 mps 691 mmHg 70%
    04:00 +9°C° 0 mm 3 mps 691 mmHg 71%
    05:00 +9°C° 0 mm 3 mps 691 mmHg 71%
    06:00 +9°C° 0 mm 3 mps 692 mmHg 71%
    07:00 +9°C° 0 mm 3 mps 692 mmHg 71%
    08:00 +11°C° 0 mm 3 mps 692 mmHg 66%
    09:00 +13°C° 0 mm 3 mps 692 mmHg 61%
    10:00 +14°C° 0 mm 3 mps 692 mmHg 56%
    11:00 +17°C° 0 mm 3 mps 692 mmHg 52%
    12:00 +18°C° 0 mm 4 mps 692 mmHg 48%
    13:00 +19°C° 0 mm 4 mps 691 mmHg 44%
    14:00 +18°C° 0 mm 4 mps 691 mmHg 47%
    15:00 +17°C° 0 mm 3 mps 691 mmHg 49%
    16:00 +17°C° 0 mm 3 mps 691 mmHg 51%
    17:00 +14°C° 0 mm 3 mps 691 mmHg 54%
    18:00 +13°C° 0 mm 3 mps 692 mmHg 57%
    19:00 +12°C° 0 mm 3 mps 692 mmHg 60%
    20:00 +12°C° 0 mm 3 mps 692 mmHg 60%
    21:00 +12°C° 0 mm 3 mps 692 mmHg 59%
    22:00 +12°C° 0 mm 3 mps 692 mmHg 59%
    23:00 +12°C° 0 mm 4 mps 692 mmHg 57%

    26 June, Monday

    Time Temperature Precipitation Wind Pressure Humidity
    00:00 +11°C° 0 mm 4 mps 692 mmHg 54%
    01:00 +11°C° 0 mm 4 mps 692 mmHg 52%
    02:00 +11°C° 0 mm 4 mps 692 mmHg 56%
    03:00 +10°C° 0 mm 4 mps 692 mmHg 60%
    04:00 +10°C° 0 mm 4 mps 692 mmHg 64%
    05:00 +10°C° 0 mm 4 mps 693 mmHg 65%
    06:00 +10°C° 0 mm 4 mps 693 mmHg 65%
    07:00 +10°C° 0 mm 4 mps 693 mmHg 66%
    08:00 +12°C° 0 mm 4 mps 694 mmHg 61%
    09:00 +13°C° 0 mm 5 mps 694 mmHg 56%
    10:00 +15°C° 0 mm 5 mps 695 mmHg 51%
    11:00 +16°C° 0 mm 6 mps 695 mmHg 49%
    12:00 +16°C° 0 mm 6 mps 695 mmHg 46%
    13:00 +17°C° 0 mm 6 mps 694 mmHg 44%
    14:00 +16°C° 0 mm 5 mps 695 mmHg 47%
    15:00 +15°C° 0 mm 5 mps 695 mmHg 51%
    16:00 +15°C° 0 mm 4 mps 695 mmHg 54%
    17:00 +14°C° 0 mm 3 mps 695 mmHg 57%
    18:00 +13°C° 0 mm 3 mps 696 mmHg 61%
    19:00 +12°C° 0 mm 3 mps 696 mmHg 65%
    20:00 +13°C° 0 mm 2 mps 697 mmHg 67%
    21:00 +12°C° 0 mm 2 mps 697 mmHg 69%
    22:00 +12°C° 0 mm 2 mps 697 mmHg 71%
    23:00 +10°C° 0 mm 2 mps 697 mmHg 72%

    27 June, Tuesday

    Time Temperature Precipitation Wind Pressure Humidity
    00:00 +10°C° 0 mm 2 mps 697 mmHg 72%
    01:00 +9°C° 0 mm 2 mps 697 mmHg 73%
    02:00 +9°C° 0 mm 2 mps 698 mmHg 74%
    03:00 +10°C° 0 mm 1 mps 698 mmHg 76%
    04:00 +9°C° 0 mm 1 mps 698 mmHg 77%
    05:00 +9°C° 0 mm 1 mps 699 mmHg 78%
    06:00 +9°C° 0 mm 1 mps 700 mmHg 79%
    07:00 +9°C° 0 mm 1 mps 700 mmHg 80%
    08:00 +9°C° 0 mm 2 mps 701 mmHg 72%
    09:00 +12°C° 0 mm 2 mps 701 mmHg 64%
    10:00 +13°C° 0 mm 3 mps 701 mmHg 56%
    11:00 +13°C° 0 mm 3 mps 701 mmHg 54%
    12:00 +14°C° 0 mm 3 mps 700 mmHg 52%
    13:00 +14°C° 0 mm 3 mps 700 mmHg 50%
    14:00 +14°C° 0 mm 3 mps 700 mmHg 54%
    15:00 +14°C° 0 mm 2 mps 700 mmHg 58%
    16:00 +14°C° 0 mm 2 mps 700 mmHg 62%
    17:00 +13°C° 0 mm 2 mps 700 mmHg 66%
    18:00 +11°C° 0 mm 1 mps 701 mmHg 71%
    19:00 +10°C° 0 mm 1 mps 701 mmHg 76%
    20:00 +10°C° 0 mm 1 mps 701 mmHg 76%
    21:00 +9°C° 0 mm 1 mps 701 mmHg 76%
    22:00 +9°C° 0 mm 1 mps 701 mmHg 76%
    23:00 +9°C° 0 mm 1 mps 700 mmHg 75%

    28 June, Wednesday

    Time Temperature Precipitation Wind Pressure Humidity
    00:00 +8°C° 0 mm 2 mps 700 mmHg 73%
    01:00 +7°C° 0 mm 2 mps 700 mmHg 71%
    02:00 +7°C° 0 mm 2 mps 700 mmHg 72%
    03:00 +7°C° 0 mm 2 mps 700 mmHg 72%
    04:00 +7°C° 0 mm 1 mps 699 mmHg 73%
    05:00 +6°C° 0 mm 2 mps 700 mmHg 73%
    06:00 +6°C° 0 mm 2 mps 700 mmHg 72%
    07:00 +6°C° 0 mm 2 mps 700 mmHg 72%
    08:00 +8°C° 0 mm 2 mps 700 mmHg 65%
    09:00 +12°C° 0 mm 2 mps 701 mmHg 57%
    10:00 +14°C° 0 mm 2 mps 701 mmHg 50%
    11:00 +14°C° 0 mm 3 mps 700 mmHg 45%
    12:00 +16°C° 0 mm 3 mps 700 mmHg 41%
    13:00 +17°C° 0 mm 3 mps 699 mmHg 37%
    14:00 +16°C° 0 mm 3 mps 699 mmHg 39%
    15:00 +16°C° 0 mm 2 mps 699 mmHg 41%
    16:00 +15°C° 0 mm 2 mps 699 mmHg 43%
    17:00 +14°C° 0 mm 2 mps 700 mmHg 45%
    18:00 +13°C° 0 mm 2 mps 700 mmHg 48%
    19:00 +10°C° 0 mm 2 mps 700 mmHg 51%
    20:00 +10°C° 0 mm 2 mps 700 mmHg 51%
    21:00 +10°C° 0 mm 2 mps 700 mmHg 51%
    22:00 +9°C° 0 mm 2 mps 700 mmHg 51%
    23:00 +9°C° 0 mm 2 mps 700 mmHg 52%
    Show more